Regional Weather Roundup
Issued by NWS

Home | Current Version | Previous Version | Graphics & Text | Print | Product List | Glossary On
Versions: 1 2 3 4 5 6 7 8 9 10 11 12 13 14 15 16 17 18 19 20 21 22 23 24 25 26 27 28 29 30 31 32 33 34 35 36 37 38 39 40 41 42 43 44 45 46 47 48 49 50
000
ASUS43 KLMK 061202
RWRKY
KENTUCKY REGIONAL WEATHER ROUNDUP
NATIONAL WEATHER SERVICE LOUISVILLE KY
700 AM EST FRI MAR 06 2015

NOTE "FAIR" INDICATES FEW OR NO CLOUDS BELOW 12,000 FEET
WITH NO SIGNIFICANT WEATHER AND/OR OBSTRUCTIONS TO VISIBILITY.

KYZ001>023-026-027-061>063-070>075-061300-
WESTERN AND SOUTH CENTRAL KENTUCKY

CITY           SKY/WX    TMP DP  RH WIND       PRES   REMARKS
PADUCAH        MOCLDY    -4  -9  79 CALM      30.58S
HENDERSON      PTCLDY    -6 -11  77 CALM      30.58F
OWENSBORO      PTCLDY     0  -4  82 CALM      30.59S
HOPKINSVILLE   MOCLDY     0  -4  83 NW1       30.57S
BOWLING GREEN  MOCLDY     2  -2  83 CALM      30.57R FOG
GLASGOW        NOT AVBL
$$

KYZ024-025-028>034-038-045-046-053-061300-
NORTH CENTRAL KENTUCKY

CITY           SKY/WX    TMP DP  RH WIND       PRES   REMARKS
LOUISVILLE/SDF PTCLDY     9   6  88 CALM      30.57S FOG
LOUISVILLE/LOU PTCLDY     5   0  79 CALM      30.58R
FORT KNOX      PTCLDY    -1  -5  82 CALM      30.53R
$$

KYZ035>037-039>044-047>052-055>060-089>105-061300-
NORTHEAST KENTUCKY

CITY           SKY/WX    TMP DP  RH WIND       PRES   REMARKS
LEXINGTON      MIX PCPN   0  -2  91 CALM      30.52S
COVINGTON      MOCLDY     3  -2  79 CALM      30.53F FOG
FRANKFORT      MOCLDY    -9 -14  78 CALM      30.53S
$$

KYZ054-064>069-076>088-106>120-061300-
SOUTHEAST KENTUCKY

CITY           SKY/WX    TMP DP  RH WIND       PRES   REMARKS
JACKSON        PTCLDY     8   3  80 CALM      30.48F
LONDON         MOCLDY     3  -2  79 CALM      30.49F
SOMERSET       NOT AVBL
MIDDLESBORO    PTCLDY    11  10  92 CALM      30.51F
MONTICELLO     HAZE     -11 -16  78 CALM      30.55S VSB 1
$$




USA.gov is the U.S. government's official web portal to all federal, state and local government web resources and services.